This is the latest recevied weather packets stored in our database for station/object HS5SQI-2. If no packets are shown the sender has not sent any weather packets the latest 10 day(s).
| Time | Temp. | Humidity | Pressure | Rain* | Wind** | Luminosity | Snow |
|---|---|---|---|---|---|---|---|
| 1777966955 | 37.78° C | 55% | 1005 hPa | - | - | 0 W/m² | - |
| 1777966333 | 37.78° C | 54% | 1005 hPa | - | - | 0 W/m² | - |
| 1777965711 | 37.78° C | 52% | 1005 hPa | - | - | 0 W/m² | - |
| 1777965089 | 37.22° C | 53% | 1005 hPa | - | - | 0 W/m² | - |
| 1777964467 | 37.22° C | 57% | 1005 hPa | - | - | 0 W/m² | - |
| 1777963845 | 37.78° C | 55% | 1006 hPa | - | - | 0 W/m² | - |
| 1777963223 | 36.67° C | 58% | 1006 hPa | - | - | 0 W/m² | - |
| 1777962601 | 37.78° C | 55% | 1006 hPa | - | - | 0 W/m² | - |
| 1777961979 | 36.67° C | 57% | 1007 hPa | - | - | 0 W/m² | - |
| 1777961357 | 36.11° C | 55% | 1007 hPa | - | - | 0 W/m² | - |
| 1777960735 | 36.11° C | 58% | 1007 hPa | - | - | 0 W/m² | - |
| 1777960113 | 36.11° C | 58% | 1007 hPa | - | - | 0 W/m² | - |
| 1777959491 | 36.67° C | 58% | 1007 hPa | - | - | 0 W/m² | - |
| 1777958869 | 35.56° C | 60% | 1008 hPa | - | - | 0 W/m² | - |
| 1777958247 | 36.11° C | 58% | 1008 hPa | - | - | 0 W/m² | - |
| 1777957625 | 35.56° C | 58% | 1008 hPa | - | - | 0 W/m² | - |
| 1777957003 | 35.56° C | 62% | 1009 hPa | - | - | 0 W/m² | - |
| 1777956381 | 36.11° C | 59% | 1009 hPa | - | - | 0 W/m² | - |
| 1777955759 | 36.11° C | 60% | 1009 hPa | - | - | 0 W/m² | - |
| 1777955137 | 36.11° C | 60% | 1009 hPa | - | - | 0 W/m² | - |
| 1777954515 | 35° C | 60% | 1009 hPa | - | - | 0 W/m² | - |
| 1777953893 | 33.89° C | 64% | 1009 hPa | - | - | 0 W/m² | - |
| 1777953271 | 34.44° C | 65% | 1009 hPa | - | - | 0 W/m² | - |
| 1777952648 | 34.44° C | 63% | 1009 hPa | - | - | 0 W/m² | - |
| 1777952027 | 33.89° C | 63% | 1009 hPa | - | - | 0 W/m² | - |
* Rain since midnight (hover to see other rain measurements)
** Current wind speed in m/s (hover to see current wind gust speed)